When you browse on this site, cookies collect data to enhance your experience and personalize the content and advertising you see.
Visit our Privacy Policy to learn more. By continuing to use the site, you agree to this use of cookies and data.
  • In Belgien
  • Länderverzeichnis
  • Für 7 Tage
  • Wassertemperatur
  • Wetterkarte
  • Widgets
  • user-avatar
    Anmelden

    Stündliche Wetter Molepolole

    Heute, 21 September, Samstag

    Zeit Temperatur Niederschläge Wind Luftdruck Luftfeuchtigkeit
    00:00 +19°C° 0 mm 3 m/S 666 mmHg 28%
    01:00 +18°C° 0 mm 2 m/S 666 mmHg 30%
    02:00 +18°C° 0 mm 2 m/S 666 mmHg 31%
    03:00 +17°C° 0 mm 2 m/S 665 mmHg 35%
    04:00 +16°C° 0 mm 2 m/S 665 mmHg 39%
    05:00 +15°C° 0 mm 2 m/S 665 mmHg 43%
    06:00 +17°C° 0 mm 3 m/S 665 mmHg 41%
    07:00 +19°C° 0 mm 3 m/S 666 mmHg 39%
    08:00 +21°C° 0 mm 4 m/S 667 mmHg 36%
    09:00 +25°C° 0 mm 4 m/S 667 mmHg 31%
    10:00 +28°C° 0 mm 5 m/S 668 mmHg 25%
    11:00 +32°C° 0 mm 5 m/S 668 mmHg 19%
    12:00 +33°C° 0 mm 5 m/S 667 mmHg 17%
    13:00 +34°C° 0 mm 5 m/S 667 mmHg 14%
    14:00 +35°C° 0 mm 4 m/S 666 mmHg 12%
    15:00 +35°C° 0 mm 4 m/S 665 mmHg 11%
    16:00 +35°C° 0 mm 4 m/S 665 mmHg 11%
    17:00 +35°C° 0 mm 4 m/S 665 mmHg 10%
    18:00 +30°C° 0 mm 4 m/S 664 mmHg 13%
    19:00 +27°C° 0 mm 3 m/S 663 mmHg 15%
    20:00 +23°C° 0 mm 2 m/S 663 mmHg 18%
    21:00 +23°C° 0 mm 2 m/S 663 mmHg 19%
    22:00 +21°C° 0 mm 2 m/S 663 mmHg 20%
    23:00 +20°C° 0 mm 2 m/S 663 mmHg 21%

    Morgen, 22 September, Sonntag

    Zeit Temperatur Niederschläge Wind Luftdruck Luftfeuchtigkeit
    00:00 +19°C° 0 mm 2 m/S 663 mmHg 23%
    01:00 +19°C° 0 mm 3 m/S 663 mmHg 24%
    02:00 +19°C° 0 mm 3 m/S 662 mmHg 26%
    03:00 +18°C° 0 mm 3 m/S 662 mmHg 29%
    04:00 +17°C° 0 mm 3 m/S 662 mmHg 31%
    05:00 +16°C° 0 mm 3 m/S 662 mmHg 34%
    06:00 +18°C° 0 mm 3 m/S 663 mmHg 31%
    07:00 +20°C° 0 mm 3 m/S 664 mmHg 28%
    08:00 +22°C° 0 mm 4 m/S 665 mmHg 25%
    09:00 +26°C° 0 mm 3 m/S 665 mmHg 21%
    10:00 +29°C° 0 mm 3 m/S 665 mmHg 16%
    11:00 +33°C° 0 mm 3 m/S 666 mmHg 12%
    12:00 +34°C° 0 mm 4 m/S 665 mmHg 10%
    13:00 +36°C° 0 mm 4 m/S 665 mmHg 9%
    14:00 +37°C° 0 mm 4 m/S 665 mmHg 7%
    15:00 +36°C° 0 mm 5 m/S 664 mmHg 7%
    16:00 +36°C° 0 mm 5 m/S 664 mmHg 6%
    17:00 +36°C° 0 mm 5 m/S 664 mmHg 6%
    18:00 +33°C° 0 mm 5 m/S 664 mmHg 9%
    19:00 +29°C° 0 mm 6 m/S 664 mmHg 13%
    20:00 +24°C° 0 mm 6 m/S 664 mmHg 16%
    21:00 +23°C° 0 mm 6 m/S 664 mmHg 15%
    22:00 +22°C° 0 mm 7 m/S 664 mmHg 15%
    23:00 +21°C° 0 mm 8 m/S 664 mmHg 14%

    übermorgen, 23 September, Montag

    Zeit Temperatur Niederschläge Wind Luftdruck Luftfeuchtigkeit
    00:00 +19°C° 0 mm 6 m/S 664 mmHg 16%
    01:00 +17°C° 0 mm 5 m/S 664 mmHg 19%
    02:00 +15°C° 0 mm 4 m/S 664 mmHg 21%
    03:00 +14°C° 0 mm 4 m/S 664 mmHg 26%
    04:00 +13°C° 0 mm 4 m/S 664 mmHg 30%
    05:00 +12°C° 0 mm 4 m/S 664 mmHg 35%
    06:00 +13°C° 0 mm 4 m/S 665 mmHg 33%
    07:00 +15°C° 0 mm 4 m/S 666 mmHg 32%
    08:00 +17°C° 0 mm 4 m/S 666 mmHg 30%
    09:00 +20°C° 0 mm 4 m/S 667 mmHg 25%
    10:00 +23°C° 0 mm 4 m/S 667 mmHg 19%
    11:00 +27°C° 0 mm 4 m/S 668 mmHg 14%
    12:00 +29°C° 0 mm 3 m/S 668 mmHg 11%
    13:00 +31°C° 0 mm 2 m/S 667 mmHg 8%
    14:00 +33°C° 0 mm 1 m/S 667 mmHg 6%
    15:00 +31°C° 0 mm 0 m/S 667 mmHg 5%
    16:00 +31°C° 0 mm 0 m/S 666 mmHg 5%
    17:00 +30°C° 0 mm 0 m/S 666 mmHg 5%
    18:00 +29°C° 0 mm 1 m/S 665 mmHg 8%
    19:00 +25°C° 0 mm 1 m/S 665 mmHg 10%
    20:00 +20°C° 0 mm 2 m/S 665 mmHg 13%
    21:00 +20°C° 0 mm 3 m/S 665 mmHg 29%
    22:00 +20°C° 0 mm 4 m/S 666 mmHg 44%
    23:00 +19°C° 0 mm 5 m/S 667 mmHg 60%

    24 September, Dienstag

    Zeit Temperatur Niederschläge Wind Luftdruck Luftfeuchtigkeit
    00:00 +17°C° 0 mm 5 m/S 667 mmHg 66%
    01:00 +17°C° 0 mm 4 m/S 666 mmHg 71%
    02:00 +14°C° 0 mm 4 m/S 666 mmHg 77%
    03:00 +14°C° 0 mm 4 m/S 667 mmHg 79%
    04:00 +14°C° 0 mm 5 m/S 667 mmHg 82%
    05:00 +13°C° 0 mm 5 m/S 667 mmHg 84%
    06:00 +14°C° 0 mm 6 m/S 667 mmHg 80%
    07:00 +15°C° 0 mm 6 m/S 668 mmHg 77%
    08:00 +15°C° 0 mm 6 m/S 669 mmHg 73%
    09:00 +17°C° 0 mm 6 m/S 669 mmHg 65%
    10:00 +19°C° 0 mm 6 m/S 669 mmHg 58%
    11:00 +21°C° 0 mm 6 m/S 669 mmHg 50%
    12:00 +23°C° 0 mm 5 m/S 669 mmHg 44%
    13:00 +26°C° 0 mm 5 m/S 669 mmHg 37%
    14:00 +28°C° 0 mm 5 m/S 668 mmHg 30%
    15:00 +28°C° 0 mm 4 m/S 668 mmHg 28%
    16:00 +29°C° 0 mm 4 m/S 667 mmHg 26%
    17:00 +29°C° 0 mm 3 m/S 667 mmHg 24%
    18:00 +26°C° 0 mm 3 m/S 667 mmHg 30%
    19:00 +23°C° 0 mm 4 m/S 667 mmHg 37%
    20:00 +21°C° 0 mm 4 m/S 667 mmHg 43%
    21:00 +20°C° 0 mm 4 m/S 667 mmHg 48%
    22:00 +18°C° 0 mm 3 m/S 667 mmHg 52%
    23:00 +17°C° 0 mm 3 m/S 667 mmHg 57%

    25 September, Mittwoch

    Zeit Temperatur Niederschläge Wind Luftdruck Luftfeuchtigkeit
    00:00 +17°C° 0 mm 3 m/S 667 mmHg 62%
    01:00 +15°C° 0 mm 4 m/S 667 mmHg 67%
    02:00 +14°C° 0 mm 4 m/S 667 mmHg 72%
    03:00 +13°C° 0 mm 4 m/S 667 mmHg 77%
    04:00 +12°C° 0 mm 4 m/S 667 mmHg 83%
    05:00 +11°C° 0 mm 4 m/S 667 mmHg 88%
    06:00 +12°C° 0 mm 5 m/S 668 mmHg 83%
    07:00 +13°C° 0 mm 6 m/S 668 mmHg 77%
    08:00 +14°C° 0 mm 7 m/S 669 mmHg 72%
    09:00 +16°C° 0 mm 7 m/S 670 mmHg 63%
    10:00 +20°C° 0 mm 7 m/S 670 mmHg 54%
    11:00 +22°C° 0 mm 7 m/S 670 mmHg 45%
    12:00 +23°C° 0 mm 7 m/S 670 mmHg 40%
    13:00 +26°C° 0 mm 7 m/S 670 mmHg 36%
    14:00 +27°C° 0 mm 7 m/S 670 mmHg 31%
    15:00 +27°C° 0 mm 6 m/S 669 mmHg 32%
    16:00 +26°C° 0 mm 6 m/S 669 mmHg 33%
    17:00 +26°C° 0 mm 6 m/S 669 mmHg 34%
    18:00 +23°C° 0 mm 5 m/S 669 mmHg 39%
    19:00 +21°C° 0 mm 5 m/S 669 mmHg 44%
    20:00 +19°C° 0 mm 4 m/S 669 mmHg 49%
    21:00 +18°C° 0 mm 4 m/S 669 mmHg 53%
    22:00 +17°C° 0 mm 4 m/S 670 mmHg 56%
    23:00 +15°C° 0 mm 4 m/S 670 mmHg 60%

    26 September, Donnerstag

    Zeit Temperatur Niederschläge Wind Luftdruck Luftfeuchtigkeit
    00:00 +14°C° 0 mm 4 m/S 670 mmHg 60%
    01:00 +14°C° 0 mm 4 m/S 669 mmHg 60%
    02:00 +13°C° 0 mm 4 m/S 669 mmHg 61%
    03:00 +12°C° 0 mm 4 m/S 669 mmHg 62%
    04:00 +10°C° 0 mm 5 m/S 669 mmHg 64%
    05:00 +9°C° 0 mm 5 m/S 669 mmHg 65%
    06:00 +10°C° 0 mm 6 m/S 669 mmHg 64%
    07:00 +11°C° 0 mm 6 m/S 670 mmHg 63%
    08:00 +13°C° 0 mm 6 m/S 670 mmHg 63%
    09:00 +16°C° 0 mm 7 m/S 671 mmHg 52%
    10:00 +18°C° 0 mm 7 m/S 671 mmHg 42%
    11:00 +22°C° 0 mm 7 m/S 672 mmHg 32%
    12:00 +23°C° 0 mm 6 m/S 671 mmHg 28%
    13:00 +26°C° 0 mm 6 m/S 671 mmHg 23%
    14:00 +27°C° 0 mm 6 m/S 670 mmHg 18%
    15:00 +27°C° 0 mm 6 m/S 670 mmHg 17%
    16:00 +27°C° 0 mm 5 m/S 669 mmHg 16%
    17:00 +26°C° 0 mm 5 m/S 669 mmHg 15%
    18:00 +23°C° 0 mm 4 m/S 669 mmHg 17%
    19:00 +20°C° 0 mm 4 m/S 669 mmHg 20%
    20:00 +17°C° 0 mm 3 m/S 668 mmHg 22%
    21:00 +16°C° 0 mm 3 m/S 669 mmHg 23%
    22:00 +14°C° 0 mm 3 m/S 669 mmHg 24%
    23:00 +13°C° 0 mm 3 m/S 669 mmHg 25%
    Mehr zeigen